Weather in Novoaleksandrovka

Russia / Tyumen Oblast     55°23′35″N   68°51′27″E
temp.,
°C
wind,
m/s
gust,
m/s
humid.,
%
clouds,
%
prec.,
mm/h
press.,
hPa
HPBL,
m
6 may, thu
thu623:00+18sse615465 0.0 1000280
02:00+17s616345 0.0 997327
05:00+14wnw8146588 0.0 999506
08:00+14wnw912584 0.0 1001873
11:00+15wnw912375 0.0 10041655
14:00+17wnw911305 0.0 10062061
17:00+16wnw9113044 0.0 10082329
20:00+12wnw611375 0.0 1011581
7 may, fri
fri723:00+9w410460 0.0 1014286
02:00+7w411480 0.0 1015376
05:00+6wnw613510 0.0 1018676
08:00+9wnw710410 0.0 1019994
11:00+14wnw792934 0.0 10201240
14:00+18wnw67265 0.0 10201499
17:00+18wnw56264 0.0 10201479
20:00+14w33382 0.0 102025
8 may, sat
sat823:00+12w22435 0.0 102111
02:00+10sw22465 0.0 102211
05:00+9sw22499 0.0 102211
08:00+16ssw22359 0.0 1021316
11:00+19ssw3326100 0.0 10201572
14:00+21sse342395 0.0 10192085
17:00+21sse4425100 0.0 10182226
20:00+17ne1134100 0.0 101711
9 may, sun
sun923:00+16ne3335100 0.0 101745
02:00+14ene3643100 0.0 1016106
05:00+13ene3647100 0.0 1016125
08:00+17ne3537100 0.0 1016306
11:00+21e692872 0.0 10152786
14:00+22e7927100 0.0 10142821
17:00+21e71028100 0.0 10142924
20:00+16ese6124791 0.0 1016717
10 may, mon
mon1023:00+13ne4758100 0.0 1016147
02:00+12ne51162100 0.0 1017302
05:00+13ne51269100 0.0 1017334
08:00+17ene694795 0.0 1018810
11:00+20ene683598 0.0 10192339
14:00+22nne5630100 0.0 10182880
17:00+21n77284 0.0 10192365
20:00+16nne36340 0.0 102080